FW0267 Weather Reports


Display with metric or nautical units.
time (UTC)temp
F
wind
direction
speed
MPH
gust
MPH
rain 1hr
in
rain 24hr
in
rain mn
in
humidity
%
barometer
mb
20260506134017 66 224 2.0 5.0 0.00 0.00 0.00 20 1012.7
20260506133518 65 205 2.0 10.0 0.00 0.00 0.00 22 1012.6
20260506133014 65 160 2.0 10.0 0.00 0.00 0.00 22 1012.5
20260506132512 66 199 2.0 6.0 0.00 0.00 0.00 22 1012.6
20260506132014 66 207 2.0 6.0 0.00 0.00 0.00 21 1012.4
20260506131509 66 212 1.0 4.0 0.00 0.00 0.00 20 1012.5
20260506131011 66 211 1.0 8.0 0.00 0.00 0.00 20 1012.4
20260506130509 65 167 2.0 6.0 0.00 0.00 0.00 19 1012.2
20260506130006 65 223 2.0 8.0 0.00 0.00 0.00 17 1012.3
20260506125503 65 137 2.0 7.0 0.00 0.00 0.00 17 1012.2
20260506125004 65 142 2.0 10.0 0.00 0.00 0.00 15 1012.1
20260506124601 65 167 2.0 10.0 0.00 0.00 0.00 13 1012.1
20260506124058 65 240 1.0 4.0 0.00 0.00 0.00 11 1012.2
20260506123558 65 200 1.0 3.0 0.00 0.00 0.00 10 1012.1
20260506123056 65 200 1.0 3.0 0.00 0.00 0.00 12 1012.1
20260506122554 65 197 2.0 9.0 0.00 0.00 0.00 12 1012.0
20260506122053 65 178 1.0 7.0 0.00 0.00 0.00 12 1011.9
20260506121551 65 200 2.0 7.0 0.00 0.00 0.00 11 1011.9
20260506121049 65 159 1.0 7.0 0.00 0.00 0.00 8 1012.0
20260506120549 65 159 2.0 7.0 0.00 0.00 0.00 8 1012.1
20260506120047 65 186 2.0 6.0 0.00 0.00 0.00 6 1012.1
20260506115544 64 180 2.0 6.0 0.00 0.00 0.00 6 1012.1
20260506115043 64 165 0.0 5.0 0.00 0.00 0.00 6 1012.2
20260506114547 64 165 2.0 5.0 0.00 0.00 0.00 6 1012.2
20260506114040 64 173 1.0 4.0 0.00 0.00 0.00 5 1012.1
20260506113539 64 177 1.0 3.0 0.00 0.00 0.00 5 1012.1
20260506113038 64 173 1.0 7.0 0.00 0.00 0.00 5 1012.0
20260506112536 64 170 2.0 7.0 0.00 0.00 0.00 6 1012.1
20260506112034 64 154 1.0 6.0 0.00 0.00 0.00 7 1012.1
20260506111533 64 150 1.0 5.0 0.00 0.00 0.00 7 1012.1
20260506111032 64 241 1.0 6.0 0.00 0.00 0.00 8 1012.0
20260506110530 64 194 2.0 6.0 0.00 0.00 0.00 9 1012.0
20260506110030 63 171 2.0 6.0 0.00 0.00 0.00 9 1012.0
20260506105527 63 157 2.0 7.0 0.00 0.00 0.00 10 1012.2
20260506105025 63 199 2.0 5.0 0.00 0.00 0.00 11 1012.2
20260506104548 63 144 2.0 6.0 0.00 0.00 0.00 11 1012.3
20260506104023 63 192 1.0 7.0 0.00 0.00 0.00 11 1012.3
20260506103521 63 191 0.0 7.0 0.00 0.00 0.00 12 1012.4
20260506103019 63 167 2.0 7.0 0.00 0.00 0.00 12 1012.4
20260506102519 63 186 1.0 4.0 0.00 0.00 0.00 12 1012.4
20260506102017 63 184 2.0 5.0 0.00 0.00 0.00 12 1012.3
20260506101516 63 208 1.0 8.0 0.00 0.00 0.00 13 1012.2
20260506101013 63 215 1.0 4.0 0.00 0.00 0.00 13 1012.1
20260506100515 63 202 1.0 7.0 0.00 0.00 0.00 13 1012.0
20260506100011 63 172 1.0 6.0 0.00 0.00 0.00 13 1012.0
20260506095512 63 188 1.0 9.0 0.00 0.00 0.00 12 1012.0
20260506095009 63 171 3.0 7.0 0.00 0.00 0.00 12 1012.1
20260506094507 63 179 1.0 7.0 0.00 0.00 0.00 11 1012.0
20260506094005 63 207 1.0 4.0 0.00 0.00 0.00 11 1012.0
20260506093504 63 126 2.0 8.0 0.00 0.00 0.00 10 1011.9
20260506093003 63 181 2.0 5.0 0.00 0.00 0.00 10 1012.0
20260506092501 63 206 1.0 7.0 0.00 0.00 0.00 9 1011.8
20260506092100 63 180 2.0 8.0 0.00 0.00 0.00 8 1011.8
20260506091602 64 205 2.0 8.0 0.00 0.00 0.00 6 1011.8
20260506091057 64 181 2.0 5.0 0.00 0.00 0.00 6 1012.0
20260506090555 64 174 1.0 7.0 0.00 0.00 0.00 5 1012.1
20260506090054 64 155 2.0 8.0 0.00 0.00 0.00 5 1012.2
20260506085552 64 192 2.0 8.0 0.00 0.00 0.00 5 1012.0
20260506085054 64 176 1.0 10.0 0.00 0.00 0.00 5 1012.1
20260506084551 64 178 2.0 10.0 0.00 0.00 0.00 5 1012.2
20260506084048 64 178 1.0 8.0 0.00 0.00 0.00 5 1012.3
20260506083547 64 198 2.0 8.0 0.00 0.00 0.00 5 1012.3
20260506083048 64 161 1.0 7.0 0.00 0.00 0.00 6 1012.5
20260506082544 64 156 2.0 7.0 0.00 0.00 0.00 7 1012.4
20260506082044 64 71 1.0 6.0 0.00 0.00 0.00 8 1012.5
20260506081543 64 174 0.0 6.0 0.00 0.00 0.00 9 1012.4
20260506081043 64 173 1.0 4.0 0.00 0.00 0.00 10 1012.4
20260506080543 64 182 1.0 4.0 0.00 0.00 0.00 12 1012.4
20260506073036 65 144 2.0 8.0 0.00 0.00 0.00 18 1012.4
20260506072536 65 158 1.0 6.0 0.00 0.00 0.00 19 1012.4
20260506072036 65 191 2.0 7.0 0.00 0.00 0.00 19 1012.6
20260506071536 65 124 1.0 7.0 0.00 0.00 0.00 20 1012.6
20260506071034 65 165 2.0 7.0 0.00 0.00 0.00 20 1012.6
20260506070536 65 154 1.0 4.0 0.00 0.00 0.00 21 1012.5
20260506062028 66 205 2.0 4.0 0.00 0.00 0.00 25 1012.9
20260506061527 66 138 1.0 7.0 0.00 0.00 0.00 27 1012.8
20260506061028 66 194 3.0 7.0 0.00 0.00 0.00 28 1012.7
20260506060526 66 152 1.0 5.0 0.00 0.00 0.00 30 1012.8
20260506051016 68 140 2.0 7.0 0.00 0.00 0.00 42 1013.2
20260506050516 68 173 1.0 8.0 0.00 0.00 0.00 43 1013.3
20260506045013 68 182 1.0 7.0 0.00 0.00 0.00 45 1013.4
20260506044513 69 90 2.0 7.0 0.00 0.00 0.00 45 1013.4
20260506044012 69 240 1.0 7.0 0.00 0.00 0.00 46 1013.4
20260506043516 69 245 1.0 12.0 0.00 0.00 0.00 46 1013.5
20260506043016 69 179 3.0 12.0 0.00 0.00 0.00 47 1013.5
20260506042515 69 191 2.0 8.0 0.00 0.00 0.00 48 1013.5
20260506042010 69 159 2.0 8.0 0.00 0.00 0.00 49 1013.4
20260506041510 69 198 1.0 7.0 0.00 0.00 0.00 51 1013.3
20260506041008 69 198 2.0 7.0 0.00 0.00 0.00 52 1013.4
20260506040508 69 212 2.0 7.0 0.00 0.00 0.00 53 1013.4
20260506040008 69 150 1.0 5.0 0.00 0.00 0.00 54 1013.4
20260506035506 70 196 2.0 5.0 0.00 0.00 0.00 54 1013.4
20260506035006 70 162 2.0 4.0 0.00 0.00 0.00 55 1013.3
20260506034506 70 194 0.0 4.0 0.00 0.00 0.00 55 1013.4
20260506034005 70 171 1.0 4.0 0.00 0.00 0.00 55 1013.4
20260506033606 70 235 1.0 7.0 0.00 0.00 0.00 55 1013.4
20260506033006 70 136 1.0 4.0 0.00 0.00 0.00 55 1013.4
20260506032505 70 198 2.0 4.0 0.00 0.00 0.00 55 1013.4
20260506032005 71 185 1.0 6.0 0.00 0.00 0.00 55 1013.4
20260506031505 71 155 2.0 5.0 0.00 0.00 0.00 55 1013.4
20260506031005 71 196 1.0 7.0 0.00 0.00 0.00 55 1013.3
20260506030504 71 167 2.0 7.0 0.00 0.00 0.00 55 1013.3
20260506030004 71 200 1.0 5.0 0.00 0.00 0.00 54 1013.2
20260506025506 71 186 2.0 5.0 0.00 0.00 0.00 54 1013.2
20260506025003 71 159 1.0 4.0 0.00 0.00 0.00 54 1013.3
20260506024511 71 134 1.0 7.0 0.00 0.00 0.00 54 1013.4
20260506024105 71 168 1.0 7.0 0.00 0.00 0.00 54 1013.4
20260506023605 71 182 1.0 6.0 0.00 0.00 0.00 53 1013.4
20260506023002 72 155 1.0 8.0 0.00 0.00 0.00 53 1013.4
20260506022502 72 225 3.0 8.0 0.00 0.00 0.00 53 1013.3
20260506022002 72 153 2.0 6.0 0.00 0.00 0.00 53 1013.4
20260506021504 72 177 0.0 6.0 0.00 0.00 0.00 53 1013.3
20260506021002 72 194 1.0 5.0 0.00 0.00 0.00 53 1013.3
20260506020502 72 172 2.0 7.0 0.00 0.00 0.00 52 1013.2
20260506020002 72 207 1.0 5.0 0.00 0.00 0.00 52 1013.2
20260506015601 72 207 1.0 5.0 0.00 0.00 0.00 52 1013.2
20260506015101 72 159 1.0 3.0 0.00 0.00 0.00 51 1013.2
20260506014600 72 109 1.0 8.0 0.00 0.00 0.00 51 1013.0
20260506014100 73 173 1.0 8.0 0.00 0.00 0.00 51 1013.0
20260506013600 73 175 1.0 3.0 0.00 0.00 0.00 51 1013.1
20260506013100 73 175 1.0 8.0 0.00 0.00 0.00 51 1013.0
20260506012600 73 217 2.0 11.0 0.00 0.00 0.00 50 1012.9
20260506012103 73 44 2.0 11.0 0.00 0.00 0.00 50 1012.9
20260506011600 73 168 0.0 9.0 0.00 0.00 0.00 49 1012.7
20260506011059 73 159 1.0 7.0 0.00 0.00 0.00 49 1012.7
20260506010559 74 159 0.0 9.0 0.00 0.00 0.00 49 1012.7
20260506005559 74 145 1.0 5.0 0.00 0.00 0.00 48 1012.6
20260506005058 74 160 1.0 6.0 0.00 0.00 0.00 48 1012.5
20260506004603 74 147 0.0 4.0 0.00 0.00 0.00 48 1012.5
20260506004058 74 157 0.0 5.0 0.00 0.00 0.00 47 1012.5
20260506003601 75 177 2.0 5.0 0.00 0.00 0.00 47 1012.4
20260506003116 75 169 1.0 5.0 0.00 0.00 0.00 47 1012.3
20260506002601 75 127 0.0 5.0 0.00 0.00 0.00 47 1012.4
20260506002058 75 155 1.0 6.0 0.00 0.00 0.00 46 1012.5
20260506001618 75 180 1.0 6.0 0.00 0.00 0.00 46 1012.3
20260506001058 76 171 0.0 3.0 0.00 0.00 0.00 46 1012.3
20260506000558 76 192 1.0 5.0 0.00 0.00 0.00 45 1012.3
20260506000105 76 128 1.0 5.0 0.00 0.00 0.00 45 1012.2
20260505235557 76 217 2.0 7.0 0.00 0.00 0.00 45 1012.2
20260505235056 76 169 1.0 7.0 0.00 0.00 0.00 45 1012.3
20260505234612 76 217 1.0 6.0 0.00 0.00 0.00 44 1012.3
20260505234057 77 188 0.0 4.0 0.00 0.00 0.00 44 1012.1
20260505233557 77 160 1.0 8.0 0.00 0.00 0.00 44 1012.1
20260505233057 77 137 1.0 9.0 0.00 0.00 0.00 43 1012.1
20260505232556 77 107 1.0 4.0 0.00 0.00 0.00 43 1012.1
20260505232058 77 150 1.0 9.0 0.00 0.00 0.00 43 1012.1
20260505231556 77 170 2.0 9.0 0.00 0.00 0.00 42 1012.2
20260505231055 77 183 2.0 6.0 0.00 0.00 0.00 41 1012.1
20260505230555 78 45 2.0 6.0 0.00 0.00 0.00 42 1012.1
20260505230055 78 133 1.0 5.0 0.00 0.00 0.00 41 1012.1
20260505225558 78 157 1.0 7.0 0.00 0.00 0.00 41 1012.0
20260505225055 78 219 3.0 7.0 0.00 0.00 0.00 40 1012.1
20260505224555 78 146 1.0 6.0 0.00 0.00 0.00 40 1012.1
20260505224055 79 182 3.0 7.0 0.00 0.00 0.00 39 1012.1
20260505223554 79 153 2.0 12.0 0.00 0.00 0.00 39 1012.1
20260505223105 79 37 1.0 12.0 0.00 0.00 0.00 39 1012.1
20260505222551 79 152 1.0 9.0 0.00 0.00 0.00 39 1012.1
20260505222049 79 203 4.0 9.0 0.00 0.00 0.00 38 1012.0
20260505221548 80 165 1.0 10.0 0.00 0.00 0.00 37 1012.0
20260505221047 80 147 4.0 10.0 0.00 0.00 0.00 37 1012.0
20260505220544 80 229 2.0 12.0 0.00 0.00 0.00 38 1011.9
20260505220047 80 186 2.0 12.0 0.00 0.00 0.00 37 1011.9
20260505215542 80 174 3.0 9.0 0.00 0.00 0.00 36 1011.9
20260505215040 80 153 3.0 11.0 0.00 0.00 0.00 35 1011.9
20260505214552 80 215 1.0 15.0 0.00 0.00 0.00 34 1011.8
20260505214041 80 174 5.0 15.0 0.00 0.00 0.00 33 1011.8
20260505213536 80 230 2.0 10.0 0.00 0.00 0.00 33 1011.9
20260505213034 81 260 4.0 10.0 0.00 0.00 0.00 32 1012.0
20260505212533 81 198 2.0 7.0 0.00 0.00 0.00 32 1011.9
20260505212034 81 230 2.0 5.0 0.00 0.00 0.00 32 1011.9
20260505211540 82 195 2.0 4.0 0.00 0.00 0.00 32 1011.9
20260505211028 82 182 1.0 9.0 0.00 0.00 0.00 32 1012.0
20260505210530 82 167 2.0 9.0 0.00 0.00 0.00 30 1011.9
20260505210025 82 201 2.0 18.0 0.00 0.00 0.00 30 1011.9
20260505205524 82 90 2.0 18.0 0.00 0.00 0.00 30 1012.0
20260505205021 83 150 3.0 14.0 0.00 0.00 0.00 30 1011.9
20260505204522 83 171 3.0 10.0 0.00 0.00 0.00 30 1011.9
20260505204019 83 216 2.0 5.0 0.00 0.00 0.00 30 1011.8
20260505203517 83 206 2.0 5.0 0.00 0.00 0.00 30 1011.7
20260505203016 84 188 2.0 5.0 0.00 0.00 0.00 28 1011.8
20260505202515 84 245 2.0 6.0 0.00 0.00 0.00 28 1011.7
20260505202014 85 247 1.0 6.0 0.00 0.00 0.00 27 1011.8
20260505201512 85 146 3.0 7.0 0.00 0.00 0.00 27 1012.0
20260505201013 85 186 2.0 8.0 0.00 0.00 0.00 27 1011.9
20260505200509 85 251 2.0 9.0 0.00 0.00 0.00 26 1012.0
20260505200008 86 161 3.0 9.0 0.00 0.00 0.00 25 1012.0
20260505195506 86 192 2.0 8.0 0.00 0.00 0.00 26 1012.2
20260505195004 86 221 4.0 11.0 0.00 0.00 0.00 27 1012.2
20260505194504 86 61 3.0 18.0 0.00 0.00 0.00 27 1012.3
20260505194001 86 211 4.0 18.0 0.00 0.00 0.00 26 1012.3
20260505193600 86 234 3.0 15.0 0.00 0.00 0.00 26 1012.2
20260505193059 87 172 5.0 15.0 0.00 0.00 0.00 26 1012.3
20260505192559 87 243 3.0 9.0 0.00 0.00 0.00 26 1012.2
20260505192056 88 227 2.0 6.0 0.00 0.00 0.00 28 1012.4
20260505191556 87 157 2.0 7.0 0.00 0.00 0.00 28 1012.5
20260505191053 87 140 2.0 8.0 0.00 0.00 0.00 28 1012.5
20260505190551 87 145 1.0 10.0 0.00 0.00 0.00 29 1012.6
20260505190050 87 216 2.0 10.0 0.00 0.00 0.00 28 1012.8
20260505185548 87 201 3.0 10.0 0.00 0.00 0.00 27 1012.8
20260505185046 86 148 4.0 10.0 0.00 0.00 0.00 26 1012.9
20260505184550 87 223 2.0 9.0 0.00 0.00 0.00 27 1012.9
20260505184044 87 227 3.0 9.0 0.00 0.00 0.00 26 1012.9
20260505183541 87 223 3.0 9.0 0.00 0.00 0.00 27 1013.0
20260505183045 87 240 4.0 14.0 0.00 0.00 0.00 26 1013.2
20260505182541 87 211 4.0 14.0 0.00 0.00 0.00 27 1013.2
20260505182037 87 271 3.0 9.0 0.00 0.00 0.00 28 1013.2
20260505181536 87 207 2.0 6.0 0.00 0.00 0.00 28 1013.4
20260505181039 87 219 3.0 6.0 0.00 0.00 0.00 27 1013.4
20260505180536 87 191 2.0 5.0 0.00 0.00 0.00 29 1013.4
20260505180031 87 225 2.0 8.0 0.00 0.00 0.00 30 1013.4
20260505175530 86 223 3.0 8.0 0.00 0.00 0.00 31 1013.4
20260505175028 86 180 2.0 6.0 0.00 0.00 0.00 30 1013.5
20260505174527 86 196 2.0 9.0 0.00 0.00 0.00 29 1013.5
20260505174026 85 184 2.0 9.0 0.00 0.00 0.00 29 1013.5
20260505173524 86 221 2.0 9.0 0.00 0.00 0.00 30 1013.6
20260505173022 86 198 4.0 9.0 0.00 0.00 0.00 29 1013.6
20260505172521 86 255 2.0 10.0 0.00 0.00 0.00 32 1013.6
20260505172020 85 199 3.0 10.0 0.00 0.00 0.00 33 1013.6
20260505171518 86 33 2.0 9.0 0.00 0.00 0.00 33 1013.6
20260505171017 86 209 2.0 8.0 0.00 0.00 0.00 35 1013.8
20260505170516 86 230 2.0 5.0 0.00 0.00 0.00 35 1014.0
20260505170015 86 108 1.0 5.0 0.00 0.00 0.00 36 1013.9
20260505165514 85 190 1.0 5.0 0.00 0.00 0.00 37 1014.2
20260505165011 85 196 1.0 7.0 0.00 0.00 0.00 37 1014.1
20260505164510 84 143 1.0 7.0 0.00 0.00 0.00 36 1014.2
20260505164008 84 165 2.0 9.0 0.00 0.00 0.00 36 1014.3
20260505163507 84 169 2.0 10.0 0.00 0.00 0.00 38 1014.3
20260505163006 84 225 1.0 10.0 0.00 0.00 0.00 38 1014.4
20260505162508 84 213 2.0 5.0 0.00 0.00 0.00 38 1014.5
20260505162004 83 134 1.0 4.0 0.00 0.00 0.00 37 1014.5
20260505161501 83 209 1.0 4.0 0.00 0.00 0.00 41 1014.6
20260505161100 83 67 1.0 5.0 0.00 0.00 0.00 40 1014.8
20260505160558 82 219 2.0 6.0 0.00 0.00 0.00 41 1014.8
20260505153052 80 237 1.0 5.0 0.00 0.00 0.00 45 1015.2
20260505152549 79 205 1.0 7.0 0.00 0.00 0.00 45 1015.2
20260505152044 79 212 1.0 4.0 0.00 0.00 0.00 44 1015.2
20260505151546 79 209 2.0 5.0 0.00 0.00 0.00 46 1015.2
20260505151042 78 221 1.0 8.0 0.00 0.00 0.00 46 1015.2
20260505150541 78 222 1.0 8.0 0.00 0.00 0.00 45 1015.2
20260505140525 72 194 2.0 8.0 0.00 0.00 0.00 52 1015.1